カタログに戻る

CZ-6A DEB

運用中SSO
NORAD 56607·DEBRIS·🇨🇳 China

打ち上げ Nov 11, 2022 から Taiyuan Satellite Launch Center

Loading…

次のパス (今後24時間)

TLE

最新Source: Space-Track

元期: Sep 13, 2026, 18:48 UTC

1 56607U 22151AEF 26256.78383143  .00000344  00000-0  13945-3 0  9999
2 56607  98.6864 282.6677 0115059 194.7319 165.0501 14.30392596176778

AllMySatでCZ-6A DEBをリアルタイム追跡

Download on the App Store